owner,sensor,date,latitude,longitude,vertical_datum,mass_concentration_of_oxygen_in_sea_water,qcFlag 
DISL,ioos:station:DISL:BSCA:1,2011-02-01T00:00:00Z,30.3288,-87.8293,1.775,8.82,1111122 
DISL,ioos:station:DISL:BSCA:1,2011-02-01T00:30:00Z,30.3288,-87.8293,1.8,8.51,1111122 
DISL,ioos:station:DISL:BSCA:1,2011-02-01T01:00:00Z,30.3288,-87.8293,1.829,8.68,1111122 
DISL,ioos:station:DISL:BSCA:1,2011-02-01T01:30:00Z,30.3288,-87.8293,1.843,8.81,1111122 
DISL,ioos:station:DISL:BSCA:1,2011-02-01T02:00:00Z,30.3288,-87.8293,1.869,9.2,1111122 
DISL,ioos:station:DISL:BSCA:1,2011-02-01T02:30:00Z,30.3288,-87.8293,1.882,8.99,1111122 
DISL,ioos:station:DISL:BSCA:1,2011-02-01T03:00:00Z,30.3288,-87.8293,1.896,8.71,1111122 
DISL,ioos:station:DISL:BSCA:1,2011-02-01T03:30:00Z,30.3288,-87.8293,1.898,8.6,1111122 
DISL,ioos:station:DISL:BSCA:1,2011-02-01T04:00:00Z,30.3288,-87.8293,1.904,8.76,1111122 
DISL,ioos:station:DISL:BSCA:1,2011-02-01T04:30:00Z,30.3288,-87.8293,1.891,8.49,1111122 
DISL,ioos:station:DISL:BSCA:1,2011-02-01T05:00:00Z,30.3288,-87.8293,1.878,8.55,1111122 
DISL,ioos:station:DISL:BSCA:1,2011-02-01T05:30:00Z,30.3288,-87.8293,1.843,8.74,1111122 
DISL,ioos:station:DISL:BSCA:1,2011-02-01T06:00:00Z,30.3288,-87.8293,1.807,8.37,1111122 
DISL,ioos:station:DISL:BSCA:1,2011-02-01T06:30:00Z,30.3288,-87.8293,1.769,8.01,1111122 
DISL,ioos:station:DISL:BSCA:1,2011-02-01T07:00:00Z,30.3288,-87.8293,1.729,8.53,1111122 
DISL,ioos:station:DISL:BSCA:1,2011-02-01T07:30:00Z,30.3288,-87.8293,1.684,9.1,1111122 
DISL,ioos:station:DISL:BSCA:1,2011-02-01T08:00:00Z,30.3288,-87.8293,1.645,9.06,1111122 
DISL,ioos:station:DISL:BSCA:1,2011-02-01T08:30:00Z,30.3288,-87.8293,1.618,8.84,1111122 
DISL,ioos:station:DISL:BSCA:1,2011-02-01T09:00:00Z,30.3288,-87.8293,1.591,8.8,1111122 
DISL,ioos:station:DISL:BSCA:1,2011-02-01T09:30:00Z,30.3288,-87.8293,1.553,8.72,1111122 
DISL,ioos:station:DISL:BSCA:1,2011-02-01T10:00:00Z,30.3288,-87.8293,1.522,8.7,1111122 
DISL,ioos:station:DISL:BSCA:1,2011-02-01T10:30:00Z,30.3288,-87.8293,1.491,8.43,1111122 
DISL,ioos:station:DISL:BSCA:1,2011-02-01T11:00:00Z,30.3288,-87.8293,1.453,9.13,1111122 
DISL,ioos:station:DISL:BSCA:1,2011-02-01T11:30:00Z,30.3288,-87.8293,1.415,9.11,1111122 
DISL,ioos:station:DISL:BSCA:1,2011-02-01T12:00:00Z,30.3288,-87.8293,1.381,9.01,1111122 
DISL,ioos:station:DISL:BSCA:1,2011-02-01T12:30:00Z,30.3288,-87.8293,1.351,8.83,1111122 
DISL,ioos:station:DISL:BSCA:1,2011-02-01T13:00:00Z,30.3288,-87.8293,1.338,8.82,1111122 
DISL,ioos:station:DISL:BSCA:1,2011-02-01T13:30:00Z,30.3288,-87.8293,1.324,8.64,1111122 
DISL,ioos:station:DISL:BSCA:1,2011-02-01T14:00:00Z,30.3288,-87.8293,1.315,8.99,1111122 
DISL,ioos:station:DISL:BSCA:1,2011-02-01T14:30:00Z,30.3288,-87.8293,1.301,9.28,1111122 
DISL,ioos:station:DISL:BSCA:1,2011-02-01T15:00:00Z,30.3288,-87.8293,1.289,9.25,1111122 
DISL,ioos:station:DISL:BSCA:1,2011-02-01T15:30:00Z,30.3288,-87.8293,1.283,9.25,1111122 
DISL,ioos:station:DISL:BSCA:1,2011-02-01T16:00:00Z,30.3288,-87.8293,1.291,9.26,1111122 
DISL,ioos:station:DISL:BSCA:1,2011-02-01T16:30:00Z,30.3288,-87.8293,1.288,9.28,1111122 
DISL,ioos:station:DISL:BSCA:1,2011-02-01T17:00:00Z,30.3288,-87.8293,1.318,9.31,1111122 
DISL,ioos:station:DISL:BSCA:1,2011-02-01T17:30:00Z,30.3288,-87.8293,1.344,9.26,1111122 
DISL,ioos:station:DISL:BSCA:1,2011-02-01T18:00:00Z,30.3288,-87.8293,1.375,9.26,1111122 
DISL,ioos:station:DISL:BSCA:1,2011-02-01T18:30:00Z,30.3288,-87.8293,1.385,9.34,1111122 
DISL,ioos:station:DISL:BSCA:1,2011-02-01T19:00:00Z,30.3288,-87.8293,1.402,9.17,1111122 
DISL,ioos:station:DISL:BSCA:1,2011-02-01T19:30:00Z,30.3288,-87.8293,1.41,9.17,1111122 
DISL,ioos:station:DISL:BSCA:1,2011-02-01T20:00:00Z,30.3288,-87.8293,1.435,9.14,1111122 
DISL,ioos:station:DISL:BSCA:1,2011-02-01T20:30:00Z,30.3288,-87.8293,1.469,9.12,1111122 
DISL,ioos:station:DISL:BSCA:1,2011-02-01T21:00:00Z,30.3288,-87.8293,1.499,9.07,1111122 
DISL,ioos:station:DISL:BSCA:1,2011-02-01T21:30:00Z,30.3288,-87.8293,1.548,9.12,1111122 
DISL,ioos:station:DISL:BSCA:1,2011-02-01T22:00:00Z,30.3288,-87.8293,1.594,9.16,1111122 
DISL,ioos:station:DISL:BSCA:1,2011-02-01T22:30:00Z,30.3288,-87.8293,1.625,9.12,1111122 
DISL,ioos:station:DISL:BSCA:1,2011-02-01T23:00:00Z,30.3288,-87.8293,1.667,9.16,1111122 
DISL,ioos:station:DISL:BSCA:1,2011-02-01T23:30:00Z,30.3288,-87.8293,1.757,9.05,1111122 
DISL,ioos:station:DISL:BSCA:1,2011-02-02T00:00:00Z,30.3288,-87.8293,1.901,8.89,1111122 
DISL,ioos:station:DISL:BSCA:1,2011-02-02T00:30:00Z,30.3288,-87.8293,1.991,9.0,1111122 
DISL,ioos:station:DISL:BSCA:1,2011-02-02T01:00:00Z,30.3288,-87.8293,2.131,8.98,1111122 
DISL,ioos:station:DISL:BSCA:1,2011-02-02T01:30:00Z,30.3288,-87.8293,2.051,9.05,1111122 
DISL,ioos:station:DISL:BSCA:1,2011-02-02T02:00:00Z,30.3288,-87.8293,2.083,9.0,1111122 
DISL,ioos:station:DISL:BSCA:1,2011-02-02T02:30:00Z,30.3288,-87.8293,2.066,8.71,1111122 
DISL,ioos:station:DISL:BSCA:1,2011-02-02T03:00:00Z,30.3288,-87.8293,2.105,8.92,1111122 
DISL,ioos:station:DISL:BSCA:1,2011-02-02T03:30:00Z,30.3288,-87.8293,2.029,8.89,1111122 
DISL,ioos:station:DISL:BSCA:1,2011-02-02T04:00:00Z,30.3288,-87.8293,2.001,8.88,1111122 
DISL,ioos:station:DISL:BSCA:1,2011-02-02T04:30:00Z,30.3288,-87.8293,1.959,8.89,1111122 
DISL,ioos:station:DISL:BSCA:1,2011-02-02T05:00:00Z,30.3288,-87.8293,1.936,8.9,1111122 
DISL,ioos:station:DISL:BSCA:1,2011-02-02T05:30:00Z,30.3288,-87.8293,1.971,8.85,1111122 
DISL,ioos:station:DISL:BSCA:1,2011-02-02T06:00:00Z,30.3288,-87.8293,2.07,8.87,1111122 
DISL,ioos:station:DISL:BSCA:1,2011-02-02T06:30:00Z,30.3288,-87.8293,2.045,8.9,1111122 
DISL,ioos:station:DISL:BSCA:1,2011-02-02T07:00:00Z,30.3288,-87.8293,1.989,8.8,1111122 
DISL,ioos:station:DISL:BSCA:1,2011-02-02T07:30:00Z,30.3288,-87.8293,1.977,8.83,1111122 
DISL,ioos:station:DISL:BSCA:1,2011-02-02T08:00:00Z,30.3288,-87.8293,1.9,8.81,1111122 
DISL,ioos:station:DISL:BSCA:1,2011-02-02T08:30:00Z,30.3288,-87.8293,1.824,8.76,1111122 
DISL,ioos:station:DISL:BSCA:1,2011-02-02T09:00:00Z,30.3288,-87.8293,1.752,8.64,1111122 
DISL,ioos:station:DISL:BSCA:1,2011-02-02T09:30:00Z,30.3288,-87.8293,1.704,8.61,1111122 
DISL,ioos:station:DISL:BSCA:1,2011-02-02T10:00:00Z,30.3288,-87.8293,1.714,8.65,1111122 
DISL,ioos:station:DISL:BSCA:1,2011-02-02T10:30:00Z,30.3288,-87.8293,1.655,8.64,1111122 
DISL,ioos:station:DISL:BSCA:1,2011-02-02T11:00:00Z,30.3288,-87.8293,1.63,8.6,1111122 
DISL,ioos:station:DISL:BSCA:1,2011-02-02T11:30:00Z,30.3288,-87.8293,1.524,8.64,1111122 
DISL,ioos:station:DISL:BSCA:1,2011-02-02T12:00:00Z,30.3288,-87.8293,1.464,8.52,1111122 
DISL,ioos:station:DISL:BSCA:1,2011-02-02T12:30:00Z,30.3288,-87.8293,1.417,8.38,1111122 
DISL,ioos:station:DISL:BSCA:1,2011-02-02T13:00:00Z,30.3288,-87.8293,1.452,8.3,1111122 
DISL,ioos:station:DISL:BSCA:1,2011-02-02T13:30:00Z,30.3288,-87.8293,1.448,8.33,1111122 
DISL,ioos:station:DISL:BSCA:1,2011-02-02T14:00:00Z,30.3288,-87.8293,1.485,8.39,1111122 
DISL,ioos:station:DISL:BSCA:1,2011-02-02T14:30:00Z,30.3288,-87.8293,1.465,8.57,1111122 
DISL,ioos:station:DISL:BSCA:1,2011-02-02T15:00:00Z,30.3288,-87.8293,1.474,8.57,1111122 
DISL,ioos:station:DISL:BSCA:1,2011-02-02T15:30:00Z,30.3288,-87.8293,1.448,8.54,1111122 
DISL,ioos:station:DISL:BSCA:1,2011-02-02T16:00:00Z,30.3288,-87.8293,1.418,8.53,1111122 
DISL,ioos:station:DISL:BSCA:1,2011-02-02T16:30:00Z,30.3288,-87.8293,1.373,8.53,1111122 
DISL,ioos:station:DISL:BSCA:1,2011-02-02T17:00:00Z,30.3288,-87.8293,1.341,8.58,1111122 
DISL,ioos:station:DISL:BSCA:1,2011-02-02T17:30:00Z,30.3288,-87.8293,1.346,8.64,1111122 
DISL,ioos:station:DISL:BSCA:1,2011-02-02T18:00:00Z,30.3288,-87.8293,1.35,8.68,1111122 
DISL,ioos:station:DISL:BSCA:1,2011-02-02T18:30:00Z,30.3288,-87.8293,1.378,8.68,1111122 
DISL,ioos:station:DISL:BSCA:1,2011-02-02T19:00:00Z,30.3288,-87.8293,1.416,8.65,1111122 
DISL,ioos:station:DISL:BSCA:1,2011-02-02T19:30:00Z,30.3288,-87.8293,1.461,8.82,1111122 
DISL,ioos:station:DISL:BSCA:1,2011-02-02T20:00:00Z,30.3288,-87.8293,1.478,8.84,1111122 
DISL,ioos:station:DISL:BSCA:1,2011-02-02T20:30:00Z,30.3288,-87.8293,1.468,8.93,1111122 
DISL,ioos:station:DISL:BSCA:1,2011-02-02T21:00:00Z,30.3288,-87.8293,1.467,9.01,1111122 
DISL,ioos:station:DISL:BSCA:1,2011-02-02T21:30:00Z,30.3288,-87.8293,1.468,9.0,1111122 
DISL,ioos:station:DISL:BSCA:1,2011-02-02T22:00:00Z,30.3288,-87.8293,1.468,8.98,1111122 
DISL,ioos:station:DISL:BSCA:1,2011-02-02T22:30:00Z,30.3288,-87.8293,1.477,8.98,1111122 
DISL,ioos:station:DISL:BSCA:1,2011-02-02T23:00:00Z,30.3288,-87.8293,1.486,9.02,1111122 
DISL,ioos:station:DISL:BSCA:1,2011-02-02T23:30:00Z,30.3288,-87.8293,1.509,9.04,1111122 
DISL,ioos:station:DISL:BSCA:1,2011-02-03T00:00:00Z,30.3288,-87.8293,1.5,9.03,1111122 
DISL,ioos:station:DISL:BSCA:1,2011-02-03T00:30:00Z,30.3288,-87.8293,1.484,9.03,1111122 
DISL,ioos:station:DISL:BSCA:1,2011-02-03T01:00:00Z,30.3288,-87.8293,1.484,9.07,1111122 
DISL,ioos:station:DISL:BSCA:1,2011-02-03T01:30:00Z,30.3288,-87.8293,1.52,9.06,1111122 
DISL,ioos:station:DISL:BSCA:1,2011-02-03T02:00:00Z,30.3288,-87.8293,1.53,9.03,1111122 
DISL,ioos:station:DISL:BSCA:1,2011-02-03T02:30:00Z,30.3288,-87.8293,1.566,9.06,1111122 
DISL,ioos:station:DISL:BSCA:1,2011-02-03T03:00:00Z,30.3288,-87.8293,1.595,9.02,1111122 
DISL,ioos:station:DISL:BSCA:1,2011-02-03T03:30:00Z,30.3288,-87.8293,1.583,8.99,1111122 
DISL,ioos:station:DISL:BSCA:1,2011-02-03T04:00:00Z,30.3288,-87.8293,1.562,8.98,1111122 
DISL,ioos:station:DISL:BSCA:1,2011-02-03T04:30:00Z,30.3288,-87.8293,1.563,8.97,1111122 
DISL,ioos:station:DISL:BSCA:1,2011-02-03T05:00:00Z,30.3288,-87.8293,1.563,8.93,1111122 
DISL,ioos:station:DISL:BSCA:1,2011-02-03T05:30:00Z,30.3288,-87.8293,1.572,8.95,1111122 
DISL,ioos:station:DISL:BSCA:1,2011-02-03T06:00:00Z,30.3288,-87.8293,1.58,8.92,1111122 
DISL,ioos:station:DISL:BSCA:1,2011-02-03T06:30:00Z,30.3288,-87.8293,1.573,8.95,1111122 
DISL,ioos:station:DISL:BSCA:1,2011-02-03T07:00:00Z,30.3288,-87.8293,1.539,8.93,1111122 
DISL,ioos:station:DISL:BSCA:1,2011-02-03T07:30:00Z,30.3288,-87.8293,1.521,8.89,1111122 
DISL,ioos:station:DISL:BSCA:1,2011-02-03T08:00:00Z,30.3288,-87.8293,1.505,8.85,1111122 
DISL,ioos:station:DISL:BSCA:1,2011-02-03T08:30:00Z,30.3288,-87.8293,1.499,8.81,1111122 
DISL,ioos:station:DISL:BSCA:1,2011-02-03T09:00:00Z,30.3288,-87.8293,1.485,8.92,1111122 
DISL,ioos:station:DISL:BSCA:1,2011-02-03T09:30:00Z,30.3288,-87.8293,1.463,8.93,1111122 
DISL,ioos:station:DISL:BSCA:1,2011-02-03T10:00:00Z,30.3288,-87.8293,1.432,8.9,1111122 
DISL,ioos:station:DISL:BSCA:1,2011-02-03T10:30:00Z,30.3288,-87.8293,1.387,8.98,1111122 
DISL,ioos:station:DISL:BSCA:1,2011-02-03T11:00:00Z,30.3288,-87.8293,1.349,8.99,1111122 
DISL,ioos:station:DISL:BSCA:1,2011-02-03T11:30:00Z,30.3288,-87.8293,1.303,8.92,1111122 
DISL,ioos:station:DISL:BSCA:1,2011-02-03T12:00:00Z,30.3288,-87.8293,1.273,8.9,1111122 
DISL,ioos:station:DISL:BSCA:1,2011-02-03T12:30:00Z,30.3288,-87.8293,1.268,8.84,1111122 
DISL,ioos:station:DISL:BSCA:1,2011-02-03T13:00:00Z,30.3288,-87.8293,1.23,8.8,1111122 
DISL,ioos:station:DISL:BSCA:1,2011-02-03T13:30:00Z,30.3288,-87.8293,1.235,8.72,1111122 
DISL,ioos:station:DISL:BSCA:1,2011-02-03T14:00:00Z,30.3288,-87.8293,1.265,8.65,1111122 
DISL,ioos:station:DISL:BSCA:1,2011-02-03T14:30:00Z,30.3288,-87.8293,1.273,8.65,1111122 
DISL,ioos:station:DISL:BSCA:1,2011-02-03T15:00:00Z,30.3288,-87.8293,1.326,8.71,1111122 
DISL,ioos:station:DISL:BSCA:1,2011-02-03T15:30:00Z,30.3288,-87.8293,1.34,8.97,1111122 
DISL,ioos:station:DISL:BSCA:1,2011-02-03T16:00:00Z,30.3288,-87.8293,1.328,9.07,1111122 
DISL,ioos:station:DISL:BSCA:1,2011-02-03T16:30:00Z,30.3288,-87.8293,1.326,9.29,1111122 
DISL,ioos:station:DISL:BSCA:1,2011-02-03T17:00:00Z,30.3288,-87.8293,1.303,9.28,1111122 
DISL,ioos:station:DISL:BSCA:1,2011-02-03T17:30:00Z,30.3288,-87.8293,1.291,9.35,1111122 
DISL,ioos:station:DISL:BSCA:1,2011-02-03T18:00:00Z,30.3288,-87.8293,1.269,9.12,1111122 
DISL,ioos:station:DISL:BSCA:1,2011-02-03T18:30:00Z,30.3288,-87.8293,1.264,9.14,1111122 
DISL,ioos:station:DISL:BSCA:1,2011-02-03T19:00:00Z,30.3288,-87.8293,1.307,9.15,1111122 
DISL,ioos:station:DISL:BSCA:1,2011-02-03T19:30:00Z,30.3288,-87.8293,1.335,9.15,1111122 
DISL,ioos:station:DISL:BSCA:1,2011-02-03T20:00:00Z,30.3288,-87.8293,1.372,9.28,1111122 
DISL,ioos:station:DISL:BSCA:1,2011-02-03T20:30:00Z,30.3288,-87.8293,1.404,9.19,1111122 
DISL,ioos:station:DISL:BSCA:1,2011-02-03T21:00:00Z,30.3288,-87.8293,1.456,9.37,1111122 
DISL,ioos:station:DISL:BSCA:1,2011-02-03T21:30:00Z,30.3288,-87.8293,1.454,9.4,1111122 
DISL,ioos:station:DISL:BSCA:1,2011-02-03T22:00:00Z,30.3288,-87.8293,1.496,9.43,1111122 
DISL,ioos:station:DISL:BSCA:1,2011-02-03T22:30:00Z,30.3288,-87.8293,1.48,9.42,1111122 
DISL,ioos:station:DISL:BSCA:1,2011-02-03T23:00:00Z,30.3288,-87.8293,1.493,9.41,1111122 
DISL,ioos:station:DISL:BSCA:1,2011-02-03T23:30:00Z,30.3288,-87.8293,1.48,9.36,1111122 
DISL,ioos:station:DISL:BSCA:1,2011-02-04T00:00:00Z,30.3288,-87.8293,1.463,9.31,1111122 
DISL,ioos:station:DISL:BSCA:1,2011-02-04T00:30:00Z,30.3288,-87.8293,1.476,9.31,1111122 
DISL,ioos:station:DISL:BSCA:1,2011-02-04T01:00:00Z,30.3288,-87.8293,1.481,9.2,1111122 
DISL,ioos:station:DISL:BSCA:1,2011-02-04T01:30:00Z,30.3288,-87.8293,1.506,9.1,1111122 
DISL,ioos:station:DISL:BSCA:1,2011-02-04T02:00:00Z,30.3288,-87.8293,1.495,9.21,1111122 
DISL,ioos:station:DISL:BSCA:1,2011-02-04T02:30:00Z,30.3288,-87.8293,1.499,9.27,1111122 
DISL,ioos:station:DISL:BSCA:1,2011-02-04T03:00:00Z,30.3288,-87.8293,1.556,9.24,1111122 
DISL,ioos:station:DISL:BSCA:1,2011-02-04T03:30:00Z,30.3288,-87.8293,1.579,9.05,1111122 
DISL,ioos:station:DISL:BSCA:1,2011-02-04T04:00:00Z,30.3288,-87.8293,1.626,8.91,1111122 
DISL,ioos:station:DISL:BSCA:1,2011-02-04T04:30:00Z,30.3288,-87.8293,1.64,9.0,1111122 
DISL,ioos:station:DISL:BSCA:1,2011-02-04T05:00:00Z,30.3288,-87.8293,1.674,8.76,1111122 
DISL,ioos:station:DISL:BSCA:1,2011-02-04T05:30:00Z,30.3288,-87.8293,1.689,9.01,1111122 
DISL,ioos:station:DISL:BSCA:1,2011-02-04T06:00:00Z,30.3288,-87.8293,1.723,9.09,1111122 
DISL,ioos:station:DISL:BSCA:1,2011-02-04T06:30:00Z,30.3288,-87.8293,1.708,9.12,1111122 
DISL,ioos:station:DISL:BSCA:1,2011-02-04T07:00:00Z,30.3288,-87.8293,1.714,9.17,1111122 
DISL,ioos:station:DISL:BSCA:1,2011-02-04T07:30:00Z,30.3288,-87.8293,1.707,9.13,1111122 
DISL,ioos:station:DISL:BSCA:1,2011-02-04T08:00:00Z,30.3288,-87.8293,1.709,9.14,1111122 
DISL,ioos:station:DISL:BSCA:1,2011-02-04T08:30:00Z,30.3288,-87.8293,1.703,8.99,1111122 
DISL,ioos:station:DISL:BSCA:1,2011-02-04T09:00:00Z,30.3288,-87.8293,1.669,9.29,1111122 
DISL,ioos:station:DISL:BSCA:1,2011-02-04T09:30:00Z,30.3288,-87.8293,1.646,9.29,1111122 
DISL,ioos:station:DISL:BSCA:1,2011-02-04T10:00:00Z,30.3288,-87.8293,1.602,9.22,1111122 
DISL,ioos:station:DISL:BSCA:1,2011-02-04T10:30:00Z,30.3288,-87.8293,1.563,9.11,1111122 
DISL,ioos:station:DISL:BSCA:1,2011-02-04T11:00:00Z,30.3288,-87.8293,1.519,9.09,1111122 
DISL,ioos:station:DISL:BSCA:1,2011-02-04T11:30:00Z,30.3288,-87.8293,1.498,9.18,1111122 
DISL,ioos:station:DISL:BSCA:1,2011-02-04T12:00:00Z,30.3288,-87.8293,1.504,9.1,1111122 
DISL,ioos:station:DISL:BSCA:1,2011-02-04T12:30:00Z,30.3288,-87.8293,1.501,9.19,1111122 
DISL,ioos:station:DISL:BSCA:1,2011-02-04T13:00:00Z,30.3288,-87.8293,1.491,8.91,1111122 
DISL,ioos:station:DISL:BSCA:1,2011-02-04T13:30:00Z,30.3288,-87.8293,1.47,8.95,1111122 
DISL,ioos:station:DISL:BSCA:1,2011-02-04T14:00:00Z,30.3288,-87.8293,1.415,9.11,1111122 
DISL,ioos:station:DISL:BSCA:1,2011-02-04T14:30:00Z,30.3288,-87.8293,1.37,9.1,1111122 
DISL,ioos:station:DISL:BSCA:1,2011-02-04T15:00:00Z,30.3288,-87.8293,1.353,9.4,1111122 
DISL,ioos:station:DISL:BSCA:1,2011-02-04T15:30:00Z,30.3288,-87.8293,1.396,9.34,1111122 
DISL,ioos:station:DISL:BSCA:1,2011-02-04T16:00:00Z,30.3288,-87.8293,1.444,9.34,1111122 
DISL,ioos:station:DISL:BSCA:1,2011-02-04T16:30:00Z,30.3288,-87.8293,1.507,9.48,1111122 
DISL,ioos:station:DISL:BSCA:1,2011-02-04T17:00:00Z,30.3288,-87.8293,1.552,9.26,1111122 
DISL,ioos:station:DISL:BSCA:1,2011-02-04T17:30:00Z,30.3288,-87.8293,1.561,9.49,1111122 
DISL,ioos:station:DISL:BSCA:1,2011-02-04T18:00:00Z,30.3288,-87.8293,1.545,9.55,1111122 
DISL,ioos:station:DISL:BSCA:1,2011-02-04T18:30:00Z,30.3288,-87.8293,1.512,9.71,1111122 
DISL,ioos:station:DISL:BSCA:1,2011-02-04T19:00:00Z,30.3288,-87.8293,1.459,9.63,1111122 
DISL,ioos:station:DISL:BSCA:1,2011-02-04T19:30:00Z,30.3288,-87.8293,1.395,9.63,1111122 
DISL,ioos:station:DISL:BSCA:1,2011-02-04T20:00:00Z,30.3288,-87.8293,1.331,9.59,1111122 
DISL,ioos:station:DISL:BSCA:1,2011-02-04T20:30:00Z,30.3288,-87.8293,1.305,9.64,1111122 
DISL,ioos:station:DISL:BSCA:1,2011-02-04T21:00:00Z,30.3288,-87.8293,1.27,9.55,1111122 
DISL,ioos:station:DISL:BSCA:1,2011-02-04T21:30:00Z,30.3288,-87.8293,1.292,9.4,1111122 
DISL,ioos:station:DISL:BSCA:1,2011-02-04T22:00:00Z,30.3288,-87.8293,1.311,9.29,1111122 
DISL,ioos:station:DISL:BSCA:1,2011-02-04T22:30:00Z,30.3288,-87.8293,1.28,9.65,1111122 
DISL,ioos:station:DISL:BSCA:1,2011-02-04T23:00:00Z,30.3288,-87.8293,1.281,9.73,1111122 
DISL,ioos:station:DISL:BSCA:1,2011-02-04T23:30:00Z,30.3288,-87.8293,1.288,9.5,1111122 
DISL,ioos:station:DISL:BSCA:1,2011-02-05T00:00:00Z,30.3288,-87.8293,1.308,9.35,1111122 
DISL,ioos:station:DISL:BSCA:1,2011-02-05T00:30:00Z,30.3288,-87.8293,1.366,9.35,1111122 
DISL,ioos:station:DISL:BSCA:1,2011-02-05T01:00:00Z,30.3288,-87.8293,1.443,9.26,1111122 
DISL,ioos:station:DISL:BSCA:1,2011-02-05T01:30:00Z,30.3288,-87.8293,1.538,9.65,1111122 
DISL,ioos:station:DISL:BSCA:1,2011-02-05T02:00:00Z,30.3288,-87.8293,1.61,9.62,1111122 
DISL,ioos:station:DISL:BSCA:1,2011-02-05T02:30:00Z,30.3288,-87.8293,1.668,9.7,1111122 
DISL,ioos:station:DISL:BSCA:1,2011-02-05T03:00:00Z,30.3288,-87.8293,1.674,9.72,1111122 
DISL,ioos:station:DISL:BSCA:1,2011-02-05T03:30:00Z,30.3288,-87.8293,1.665,9.69,1111122 
DISL,ioos:station:DISL:BSCA:1,2011-02-05T04:00:00Z,30.3288,-87.8293,1.662,9.66,1111122 
DISL,ioos:station:DISL:BSCA:1,2011-02-05T04:30:00Z,30.3288,-87.8293,1.652,9.59,1111122 
DISL,ioos:station:DISL:BSCA:1,2011-02-05T05:00:00Z,30.3288,-87.8293,1.675,9.45,1111122 
DISL,ioos:station:DISL:BSCA:1,2011-02-05T05:30:00Z,30.3288,-87.8293,1.699,9.31,1111122 
DISL,ioos:station:DISL:BSCA:1,2011-02-05T06:00:00Z,30.3288,-87.8293,1.732,9.32,1111122 
DISL,ioos:station:DISL:BSCA:1,2011-02-05T06:30:00Z,30.3288,-87.8293,1.738,9.33,1111122 
DISL,ioos:station:DISL:BSCA:1,2011-02-05T07:00:00Z,30.3288,-87.8293,1.779,9.39,1111122 
DISL,ioos:station:DISL:BSCA:1,2011-02-05T07:30:00Z,30.3288,-87.8293,1.845,9.49,1111122 
DISL,ioos:station:DISL:BSCA:1,2011-02-05T08:00:00Z,30.3288,-87.8293,1.865,9.52,1111122 
DISL,ioos:station:DISL:BSCA:1,2011-02-05T08:30:00Z,30.3288,-87.8293,1.842,9.66,1111122 
DISL,ioos:station:DISL:BSCA:1,2011-02-05T09:00:00Z,30.3288,-87.8293,1.81,9.59,1111122 
DISL,ioos:station:DISL:BSCA:1,2011-02-05T09:30:00Z,30.3288,-87.8293,1.892,9.63,1111122 
DISL,ioos:station:DISL:BSCA:1,2011-02-05T10:00:00Z,30.3288,-87.8293,1.703,9.59,1111122 
DISL,ioos:station:DISL:BSCA:1,2011-02-05T10:30:00Z,30.3288,-87.8293,1.702,9.62,1111122 
DISL,ioos:station:DISL:BSCA:1,2011-02-05T11:00:00Z,30.3288,-87.8293,1.74,9.64,1111122 
DISL,ioos:station:DISL:BSCA:1,2011-02-05T11:30:00Z,30.3288,-87.8293,1.672,9.61,1111122 
DISL,ioos:station:DISL:BSCA:1,2011-02-05T12:00:00Z,30.3288,-87.8293,1.66,9.62,1111122 
DISL,ioos:station:DISL:BSCA:1,2011-02-05T12:30:00Z,30.3288,-87.8293,1.626,9.63,1111122 
DISL,ioos:station:DISL:BSCA:1,2011-02-05T13:00:00Z,30.3288,-87.8293,1.626,9.63,1111122 
DISL,ioos:station:DISL:BSCA:1,2011-02-05T13:30:00Z,30.3288,-87.8293,1.566,9.62,1111122 
DISL,ioos:station:DISL:BSCA:1,2011-02-05T14:00:00Z,30.3288,-87.8293,1.54,9.63,1111122 
DISL,ioos:station:DISL:BSCA:1,2011-02-05T14:30:00Z,30.3288,-87.8293,1.49,9.64,1111122 
DISL,ioos:station:DISL:BSCA:1,2011-02-05T15:00:00Z,30.3288,-87.8293,1.46,9.65,1111122 
DISL,ioos:station:DISL:BSCA:1,2011-02-05T15:30:00Z,30.3288,-87.8293,1.452,9.61,1111122 
DISL,ioos:station:DISL:BSCA:1,2011-02-05T16:00:00Z,30.3288,-87.8293,1.436,9.52,1111122 
DISL,ioos:station:DISL:BSCA:1,2011-02-05T16:30:00Z,30.3288,-87.8293,1.436,9.53,1111122 
DISL,ioos:station:DISL:BSCA:1,2011-02-05T17:00:00Z,30.3288,-87.8293,1.444,9.54,1111122 
DISL,ioos:station:DISL:BSCA:1,2011-02-05T17:30:00Z,30.3288,-87.8293,1.458,9.38,1111122 
DISL,ioos:station:DISL:BSCA:1,2011-02-05T18:00:00Z,30.3288,-87.8293,1.446,9.51,1111122 
DISL,ioos:station:DISL:BSCA:1,2011-02-05T18:30:00Z,30.3288,-87.8293,1.467,9.79,1111122 
DISL,ioos:station:DISL:BSCA:1,2011-02-05T19:00:00Z,30.3288,-87.8293,1.471,9.79,1111122 
DISL,ioos:station:DISL:BSCA:1,2011-02-05T19:30:00Z,30.3288,-87.8293,1.483,9.91,1111122 
DISL,ioos:station:DISL:BSCA:1,2011-02-05T20:00:00Z,30.3288,-87.8293,1.474,9.85,1111122 
DISL,ioos:station:DISL:BSCA:1,2011-02-05T20:30:00Z,30.3288,-87.8293,1.469,9.95,1111122 
DISL,ioos:station:DISL:BSCA:1,2011-02-05T21:00:00Z,30.3288,-87.8293,1.435,10.11,1111122 
DISL,ioos:station:DISL:BSCA:1,2011-02-05T21:30:00Z,30.3288,-87.8293,1.435,9.94,1111122 
DISL,ioos:station:DISL:BSCA:1,2011-02-05T22:00:00Z,30.3288,-87.8293,1.425,9.88,1111122 
DISL,ioos:station:DISL:BSCA:1,2011-02-05T22:30:00Z,30.3288,-87.8293,1.456,9.81,1111122 
DISL,ioos:station:DISL:BSCA:1,2011-02-05T23:00:00Z,30.3288,-87.8293,1.461,9.58,1111122 
DISL,ioos:station:DISL:BSCA:1,2011-02-05T23:30:00Z,30.3288,-87.8293,1.474,9.24,1111122 
DISL,ioos:station:DISL:BSCA:1,2011-02-06T00:00:00Z,30.3288,-87.8293,1.473,9.27,1111122 
DISL,ioos:station:DISL:BSCA:1,2011-02-06T00:30:00Z,30.3288,-87.8293,1.482,9.28,1111122 
DISL,ioos:station:DISL:BSCA:1,2011-02-06T01:00:00Z,30.3288,-87.8293,1.491,9.51,1111122 
DISL,ioos:station:DISL:BSCA:1,2011-02-06T01:30:00Z,30.3288,-87.8293,1.503,9.67,1111122 
DISL,ioos:station:DISL:BSCA:1,2011-02-06T02:00:00Z,30.3288,-87.8293,1.528,9.64,1111122 
DISL,ioos:station:DISL:BSCA:1,2011-02-06T02:30:00Z,30.3288,-87.8293,1.523,9.31,1111122 
DISL,ioos:station:DISL:BSCA:1,2011-02-06T03:00:00Z,30.3288,-87.8293,1.539,9.35,1111122 
DISL,ioos:station:DISL:BSCA:1,2011-02-06T03:30:00Z,30.3288,-87.8293,1.533,9.35,1111122 
DISL,ioos:station:DISL:BSCA:1,2011-02-06T04:00:00Z,30.3288,-87.8293,1.554,9.36,1111122 
DISL,ioos:station:DISL:BSCA:1,2011-02-06T04:30:00Z,30.3288,-87.8293,1.578,9.1,1111122 
DISL,ioos:station:DISL:BSCA:1,2011-02-06T05:00:00Z,30.3288,-87.8293,1.583,9.35,1111122 
DISL,ioos:station:DISL:BSCA:1,2011-02-06T05:30:00Z,30.3288,-87.8293,1.594,9.53,1111122 
DISL,ioos:station:DISL:BSCA:1,2011-02-06T06:00:00Z,30.3288,-87.8293,1.578,9.47,1111122 
DISL,ioos:station:DISL:BSCA:1,2011-02-06T06:30:00Z,30.3288,-87.8293,1.58,9.44,1111122 
DISL,ioos:station:DISL:BSCA:1,2011-02-06T07:00:00Z,30.3288,-87.8293,1.559,9.46,1111122 
DISL,ioos:station:DISL:BSCA:1,2011-02-06T07:30:00Z,30.3288,-87.8293,1.545,9.41,1111122 
DISL,ioos:station:DISL:BSCA:1,2011-02-06T08:00:00Z,30.3288,-87.8293,1.548,9.34,1111122 
DISL,ioos:station:DISL:BSCA:1,2011-02-06T08:30:00Z,30.3288,-87.8293,1.547,9.11,1111122 
DISL,ioos:station:DISL:BSCA:1,2011-02-06T09:00:00Z,30.3288,-87.8293,1.54,9.1,1111122 
DISL,ioos:station:DISL:BSCA:1,2011-02-06T09:30:00Z,30.3288,-87.8293,1.536,9.08,1111122 
DISL,ioos:station:DISL:BSCA:1,2011-02-06T10:00:00Z,30.3288,-87.8293,1.506,9.01,1111122 
DISL,ioos:station:DISL:BSCA:1,2011-02-06T10:30:00Z,30.3288,-87.8293,1.487,9.02,1111122 
DISL,ioos:station:DISL:BSCA:1,2011-02-06T11:00:00Z,30.3288,-87.8293,1.481,9.01,1111122 
DISL,ioos:station:DISL:BSCA:1,2011-02-06T11:30:00Z,30.3288,-87.8293,1.453,8.93,1111122 
DISL,ioos:station:DISL:BSCA:1,2011-02-06T12:00:00Z,30.3288,-87.8293,1.427,8.73,1111122 
DISL,ioos:station:DISL:BSCA:1,2011-02-06T12:30:00Z,30.3288,-87.8293,1.412,8.5,1111122 
DISL,ioos:station:DISL:BSCA:1,2011-02-06T13:00:00Z,30.3288,-87.8293,1.399,8.51,1111122 
DISL,ioos:station:DISL:BSCA:1,2011-02-06T13:30:00Z,30.3288,-87.8293,1.418,8.43,1111122 
DISL,ioos:station:DISL:BSCA:1,2011-02-06T14:00:00Z,30.3288,-87.8293,1.414,8.46,1111122 
DISL,ioos:station:DISL:BSCA:1,2011-02-06T14:30:00Z,30.3288,-87.8293,1.419,8.23,1111122 
DISL,ioos:station:DISL:BSCA:1,2011-02-06T15:00:00Z,30.3288,-87.8293,1.427,8.31,1111122 
DISL,ioos:station:DISL:BSCA:1,2011-02-06T15:30:00Z,30.3288,-87.8293,1.432,8.45,1111122 